Regional Weather Roundup
Issued by NWS

Home | Current Version | Previous Version | Graphics & Text | Print | Product List | Glossary Off
Versions: 1 2 3 4 5 6 7 8 9 10 11 12 13 14 15 16 17 18 19 20 21 22 23 24 25 26 27 28 29 30 31 32 33 34 35 36 37 38 39 40 41 42 43 44 45 46 47 48 49 50

000
ASUS43 KMKX 301711
RWRWI

WISCONSIN REGIONAL WEATHER ROUNDUP
NATIONAL WEATHER SERVICE MILWAUKEE/SULLIVAN WI
1200 PM CDT THU MAR 30 2017

NOTE: "FAIR" INDICATES FEW OR NO CLOUDS BELOW 12,000 FEET WITH NO
SIGNIFICANT WEATHER AND/OR OBSTRUCTIONS TO VISIBILITY.

WIZ001-002-006>008-014>016-023>028-301800-
NORTHWEST WISCONSIN

CITY           SKY/WX    TMP DP  RH WIND       PRES   REMARKS
SUPERIOR ARPT  PTSUNNY   38  34  84 NE15G21   29.99F WCI  29
ASHLAND        CLOUDY    43  30  60 N13       29.98F
HAYWARD        CLOUDY    45  31  58 E9        29.94F
SIREN          CLOUDY    46  32  58 E8        29.92F
CUMBERLAND     CLOUDY    41  32  70 E9        29.91F
RICE LAKE      CLOUDY    43  33  67 E14       29.92F
CHETEK         CLOUDY    41  33  73 E6        29.91F
LADYSMITH      CLOUDY    42  33  70 E12       29.93F
EAU CLAIRE     CLOUDY    40  34  79 NE17      29.87F WCI  31
MENOMONIE      CLOUDY    40  35  81 NE14      29.89F WCI  32
NEW RICHMOND   CLOUDY    43  33  66 E16       29.89F
OSCEOLA        CLOUDY    45  35  67 E13       29.92F
$$

WIZ003>005-009-010-017-018-301800-
NORTH CENTRAL WISCONSIN

CITY           SKY/WX    TMP DP  RH WIND       PRES   REMARKS
MANITOWISH WTR CLOUDY    39  27  62 E6        29.94F
ARBOR VITAE    PTSUNNY   42  29  61 E8        29.92F
WOODRUFF       PTSUNNY   42  29  61 E8        29.92F
RHINELANDER    CLOUDY    42  30  62 E13       29.93F
EAGLE RIVER    CLOUDY    41  26  56 E10       29.94F
LAND O LAKES   CLOUDY    38  25  59 E9        29.97F WCI  31
PHILLIPS       CLOUDY    41  31  68 E10G16    29.91F
TOMAHAWK       CLOUDY    42  30  63 E10G16    29.92F
MEDFORD        CLOUDY    38  32  80 E16       29.88F WCI  28
MERRILL        CLOUDY    39  32  76 E10G17    29.92F WCI  32
$$

WIZ029-030-035-036-043>047-301800-
CENTRAL WISCONSIN

CITY           SKY/WX    TMP DP  RH WIND       PRES   REMARKS
WAUSAU         CLOUDY    36  32  85 E16       29.89F WCI  26
MOSINEE        LGT RAIN  36  36 100 E18       29.89F WCI  25
MARSHFIELD     CLOUDY    37  34  89 E15G26    29.85F WCI  28
STEVENS POINT  CLOUDY    33  33  97 E15G23    29.89F WCI  23
WAUPACA        FLURRIES  36  34  92 NE9       29.89F WCI  29
WAUTOMA        NOT AVBL
WISC RAPIDS    CLOUDY    37  35  92 E15G23    29.86F WCI  28
CAMP DOUGLAS   LGT RAIN  37  36  93 NE13      29.83F FOG     WCI  29
$$

WIZ011>013-019>022-031-037>040-048>050-301800-
NORTHEAST WISCONSIN

CITY           SKY/WX    TMP DP  RH WIND       PRES   REMARKS
ANTIGO         CLOUDY    36  33  90 E12       29.92F WCI  27
SHAWANO        CLOUDY    36  33  90 NE14      29.94F WCI  27
OCONTO         CLOUDY    33  32  96 NE10G17   29.97F WCI  25
STURGEON BAY   LGT SNOW  34  33  96 NE13G18   29.96F FOG     WCI  25
GREEN BAY      LGT SNOW  35  35 100 NE18      29.93F FOG     WCI  24
MANITOWOC      LGT RAIN  37  35  92 NE12G18   29.90F WCI  29
APPLETON       CLOUDY    34  34 100 NE18G24   29.88F WCI  23
CLINTONVILLE   CLOUDY    34  32  93 NE14G21   29.93F WCI  24
OSHKOSH        LGT RAIN  36  34  92 NE15      29.86F FOG     WCI  27
$$

WIZ032>034-041-042-053>061-301800-
SOUTHWEST WISCONSIN

CITY           SKY/WX    TMP DP  RH WIND       PRES   REMARKS
LA CROSSE      CLOUDY    41  36  82 E12       29.79F
SPARTA         CLOUDY    38  37  96 E16G23    29.82F WCI  28
VIROQUA        CLOUDY    37  37  97 E17       29.78S WCI  28
BOSCOBEL       LGT RAIN  40  36  86 NE13G22   29.76F WCI  32
PRAIRIE DU CHI CLOUDY    38  37  97 NE14      29.73F WCI  30
PLATTEVILLE    CLOUDY    40  40 100 NE16      29.73R WCI  31
$$

WIZ056-057-062-063-064-067-068-301800-
SOUTH CENTRAL WISCONSIN

CITY           SKY/WX    TMP DP  RH WIND       PRES   REMARKS
REEDSBURG      LGT RAIN  36  36 100 E12G21    29.80F WCI  28
BARABOO/DELLS  DRIZZLE   37  36  93 E15       29.80F WCI  28
LONE ROCK      LGT RAIN  39  36  89 E16       29.77F FOG     WCI  30
MINERAL POINT  LGT RAIN  37  37 100 NE25G31   29.70F WCI  26
MADISON        LGT RAIN  38  36  92 NE16G25   29.77F WCI  29
MIDDLETON      CLOUDY    39  39  99 E10G20    29.78S WCI  33
WATERTOWN      LGT RAIN  37  37 100 E16G26    29.77F WCI  28
MONROE         DRIZZLE   37  37 100 NE16      29.72S WCI  28
JANESVILLE     LGT RAIN  39  39 100 E12G17    29.74R WCI  32
$$

WIZ051-052-058>065-066-070>072-301800-
SOUTHEAST WISCONSIN

CITY           SKY/WX    TMP DP  RH WIND       PRES   REMARKS
MILWAUKEE      LGT RAIN  39  36  89 NE13      29.80F WCI  31
WAUKESHA       LGT RAIN  36  36 100 E17G30    29.80F FOG     WCI  25
MILWAUKEE/TIMM LGT RAIN  37  34  87 NE13G20   29.82F WCI  29
RACINE         LGT RAIN  39  36  89 NE13      29.79F FOG     WCI  31
KENOSHA        LGT RAIN  40  38  93 E15       29.76F FOG     WCI  32
FOND DU LAC    LGT RAIN  39  35  86 NE17G25   29.85F WCI  30
SHEBOYGAN      LGT RAIN  37  35  92 NE22      29.86F WCI  26
WEST BEND      LGT RAIN  36  36 100 E20       29.83F WCI  25
JUNEAU         LGT RAIN  37  36  95 NE17G24   29.81F WCI  27
$$

LSZ147-162-301800-
LAKE SUPERIOR

STATION/POSITION TIME  TEMP    WIND        PRES    WAVE
                       AIR SEA DIR/SP/G            HT/PER
                 (UTC) (F)     (DEG/KT/KT) (MB)    (FT/S)
DEVILS ISLAND    1700   35      50/ 12/ 13 1017.1F
PORT WING        1630   36      40/ 17/ 18 1015.9F
SAXON HARBOR     1630   36      10/  2/  4 1015.6F
$$

LMZ867-665-643>646-301800-
LAKE MICHIGAN

STATION/POSITION TIME  TEMP    WIND        PRES    WAVE
                       AIR SEA DIR/SP/G            HT/PER
                 (UTC) (F)     (DEG/KT/KT) (MB)    (FT/S)
CHAMBERS ISLAND  1640   33      30/ 11/ 14 1015.6F
NORTHPORT PIER   1630   33      60/ 13/ 17 1016.6F
SISTER BAY       1636   35      80/ 10/ 18   N/A
KEWAUNEE LAKESHO 1648   36      50/ 13/ 19 1013.3F
SHEBOYGAN LAKESH 1700   37      40/ 18/ 20 1011.9F
PORT WASHINGTON  1630   38      50/ 15/ 19 1011.9F
MILWAUKEE LAKESH 1650   37      60/ 14/ 16   N/A
KENOSHA   LAKESH 1700   39      70/ 13/ 15 1008.5
$$

TC  - TEMPERATURE IN CELSIUS
VSB - VISIBILITY IN STATUTE MILES
WCI - WIND CHILL INDEX
HX  - HEAT INDEX





USA.gov is the U.S. government's official web portal to all federal, state and local government web resources and services.